IRIDIUM 130 (43073 NORAD) Tracking and Keplerian Element Data

This shows tracking and keplerian element data for the satellite.

Feedback or suggestion? Click here.




ElementValue
Catalog43073
NameIRIDIUM 130
Epoch Orbit33807
Epoch Day159.35790637
Epoch Year2024
RAAN271.3746
Inclination86.3965
Eccentricity0.0002214
Argument of Perigee96.2871
Mean Anonmoly263.8577
Mean Motion14.34218357
Decay Rate1.01E-06
L11 43073U 17083D 24159.35790637 .00000101 00000+0 29072-4 0 9992
L22 43073 86.3965 271.3746 0002214 96.2871 263.8577 14.34218357338075



Live tracking and technical data element details for IRIDIUM 130 (NORAD 43073). IRIDIUM 130 can be tracked NOW for your location showing map with azimuth and elevation plus other details from your city location.







IsCatalogInMostPopularTable: catalog: 43073, numindb: 643
Update: records affected: 1



GetName: 43073 IRIDIUM 130

Hit Count: updated at: Mon, 17 Jun 2024 23:17:11 GMT